Flag for China Weather past 2 weeks in Guangzhou, Guangdong, China

81 °F


Feels Like: 82 °F
Forecast: 69 / 87 °F
Wind: 3 mph from East

Location: Canton Airport

Current Time: Oct 14, 2015 at 10:36:12 AM

Latest Report: Oct 14, 2015 at 10:00 AM

Visibility: 4 mi

Pressure: 30.09 "Hg

Humidity: 58%

Dew point: 64 °F

Location of GuangzhouLocation

Historic Weather in Guangzhou — Graph


Guangzhou temperature yesterday

Maximum temperature yesterday: 86 °F (at 2:30 PM)
Minimum temperature yesterday: 70 °F (at 6:30 AM)
Average temperature yesterday: 77 °F

Past Weeks' High & Low Weather Summary

High93 °F (Sep 29, 1:30 PM)100% (Oct 4, 10:00 AM)30.18 "Hg (Oct 4, 10:00 AM)
Low63 °F (Oct 11, 7:00 AM)35% (Oct 13, 3:30 PM)29.65 "Hg (Sep 29, 2:00 PM)
Average79 °F74%29.94 "Hg
* Reported Sep 29 9:00 AM — Oct 14 9:30 AM, Guangzhou, Weather by CustomWeather, © 2015

Note: Actual official high and low records may vary slightly from our data, if they occured in-between our weather recording intervals... More about our weather records


Guangzhou weather history for previous 24 hours

Time TempWeatherWind HumidityBarometerVisibility
9:30 AM
Wed, Oct 14
79 °FClear.1 mph65%30.09 "Hg4 mi
9:00 AM77 °FClear.1 mph65%30.09 "Hg4 mi
8:30 AM75 °FClear.1 mph69%30.09 "Hg4 mi
8:00 AM75 °FClear.1 mph69%30.07 "Hg4 mi
7:30 AM73 °FClear.1 mph74%30.07 "Hg4 mi
7:00 AM72 °FClear.3 mph83%30.07 "Hg4 mi
6:30 AM70 °FClear.3 mph88%30.04 "Hg4 mi
6:00 AM72 °FClear.1 mph83%30.04 "Hg5 mi
5:30 AM70 °FClear.3 mph88%30.04 "Hg5 mi
5:00 AM70 °FClear.1 mph88%30.04 "Hg5 mi
4:30 AM72 °FClear.3 mph83%30.04 "Hg5 mi
4:00 AM72 °FClear.6 mph83%30.04 "Hg5 mi
3:30 AM72 °FClear.3 mph83%30.04 "Hg5 mi
3:00 AM72 °FClear.3 mph83%30.04 "Hg5 mi
2:30 AM73 °FClear.3 mph78%30.04 "Hg5 mi
2:00 AM73 °FClear.No wind78%30.04 "Hg10 mi
1:30 AM75 °FClear.3 mph74%30.07 "Hg10 mi
1:00 AM75 °FClear.3 mph74%30.07 "Hg10 mi
12:30 AM75 °FClear.3 mph69%30.07 "Hg10 mi
12:00 AM77 °FClear.3 mph69%30.07 "Hg10 mi
11:30 PM
Tue, Oct 13
77 °FPassing clouds.3 mph65%30.07 "HgN/A
11:00 PM77 °FClear.3 mph65%30.09 "Hg10 mi
10:30 PM77 °FClear.No wind69%30.09 "Hg10 mi
10:00 PM79 °FClear.No wind65%30.09 "Hg10 mi
9:30 PM79 °FClear.1 mph65%30.09 "Hg10 mi
9:00 PM79 °FClear.3 mph65%30.09 "Hg10 mi
8:30 PM79 °FClear.No wind61%30.07 "Hg10 mi
8:00 PM81 °FClear.1 mph54%30.07 "Hg10 mi
7:30 PM81 °FClear.1 mph54%30.04 "Hg10 mi
7:00 PM81 °FPassing clouds.3 mph51%30.04 "HgN/A
6:30 PM81 °FClear.6 mph51%30.04 "Hg10 mi
6:00 PM82 °FPassing clouds.6 mph48%30.04 "HgN/A
5:30 PM82 °FSunny.8 mph45%30.04 "Hg10 mi
5:00 PM84 °FPassing clouds.8 mph43%30.01 "HgN/A
4:30 PM84 °FSunny.1 mph40%30.01 "Hg10 mi
4:00 PM86 °FSunny.1 mph38%30.01 "Hg10 mi
3:30 PM86 °FSunny.1 mph35%30.01 "Hg10 mi
3:00 PM84 °FSunny.3 mph40%30.04 "Hg10 mi
2:30 PM86 °FSunny.3 mph38%30.04 "Hg10 mi
2:00 PM84 °FSunny.1 mph40%30.04 "Hg10 mi
1:30 PM84 °FPassing clouds.3 mph37%30.07 "HgN/A
1:00 PM84 °FSunny.3 mph43%30.07 "Hg10 mi
12:30 PM82 °FPassing clouds.3 mph40%30.09 "HgN/A
12:00 PM81 °FPassing clouds.6 mph45%30.09 "HgN/A
11:30 AM81 °FSunny.6 mph42%30.12 "Hg10 mi
11:00 AM79 °FSunny.6 mph48%30.12 "Hg10 mi
10:30 AM79 °FSunny.6 mph45%30.15 "Hg10 mi
10:00 AM77 °FSunny.3 mph47%30.15 "Hg10 mi
Weather by CustomWeather, © 2015

See weather overviewHow to use our weather pages